Location: Forst
(46.9333°N, 15.4333°E)
Time: 06:07:38
(UTC+00:00)

Nadezhda 3 Rocket - Pass Details

Date: 01 December 2020
Orbit: 956 x 1000 km, 82.9° (Epoch: 18 January)

Event Time Altitude Azimuth Distance (km) Brightness Sun altitude
Rises 17:21:06 0° 184° (S) 3,706 7.2 -21.4°
Reaches altitude 10° 17:23:36 10° 184° (S) 2,763 6.5 -21.9°
Maximum altitude 17:29:58 84° 96° (E) 1,012 3.9 -22.9°
Drops below altitude 10° 17:36:23 10° 10° (N) 2,777 6.2 -24.0°
Sets 17:38:54 0° 10° (N) 3,727 6.9 -24.4°
